Alva, OK

2:37 PM CST on December 07, 2016 (GMT -0600)
Alva Regional

Weather History for KAVK - November, 2013

Change the Weather History Date:

Saturday, November 23, 2013

  Actual Average Record
Temperature  
Mean Temperature 32 °F -  
Max Temperature 37 °F 55 °F 75 °F (1966)
Min Temperature 26 °F 32 °F 18 °F (1989)
Degree Days  
Heating Degree Days 34    
Moisture  
Dew Point 15 °F    
Average Humidity 49    
Maximum Humidity 64    
Minimum Humidity 35    
Precipitation  
Precipitation 0.00 in - - ()
Sea Level Pressure  
Sea Level Pressure 30.67 in    
Wind  
Wind Speed 13 mph (NNE)    
Max Wind Speed 20 mph    
Max Gust Speed 24 mph    
Visibility 10 miles    
Events      
Averages and records for this station are not official NWS values.
T = Trace of Precipitation, MM = Missing Value Source: NWS Daily Summary

Daily Weather History Graph

Daily Weather History Graph

Search for Another Location

Airport or City:

Trip Planner

Search our weather history database for the weather conditions in past years. The results will help you decide how hot, cold, wet, or windy it might be!

Date:

Astronomy

Nov. 23, 2013 Rise Set
Actual Time 7:21 AM CST 5:20 PM CST
Civil Twilight 6:53 AM CST 5:48 PM CST
Nautical Twilight 6:21 AM CST 6:20 PM CST
Astronomical Twilight 5:50 AM CST 6:51 PM CST
Moon 10:47 PM CST (11/23) 11:41 AM CST (11/23)
Length of Visible Light 10h 55m
Length of Day
9h 59m
Waning Gibbous, 69% of the Moon is Illuminated
Nov 23
Waning Gibbous
Nov 25
Last Quarter
Dec 2
New
Dec 9
First Quarter
Dec 17
Full

Hourly Weather History & Observations

Time (CST) Temp. Windchill Dew Point Humidity Pressure Visibility Wind Dir Wind Speed Gust Speed Precip Events Conditions
12:10 AM 32.0 °F 22.1 °F 14.0 °F 48% 30.62 in 10.0 mi North 13.8 mph - N/A   Overcast
12:30 AM 32.0 °F 21.2 °F 12.2 °F 44% 30.62 in 10.0 mi North 16.1 mph - N/A   Overcast
12:50 AM 32.0 °F 22.5 °F 14.0 °F 48% 30.62 in 10.0 mi North 12.7 mph - N/A   Overcast
1:10 AM 32.0 °F 22.1 °F 12.2 °F 44% 30.62 in 10.0 mi North 13.8 mph - N/A   Overcast
1:30 AM 32.0 °F 22.1 °F 12.2 °F 44% 30.62 in 10.0 mi North 13.8 mph - N/A   Overcast
1:50 AM 32.0 °F 22.1 °F 12.2 °F 44% 30.62 in 10.0 mi North 13.8 mph - N/A   Overcast
2:10 AM 32.0 °F 23.0 °F 14.0 °F 48% 30.62 in 10.0 mi North 11.5 mph - N/A   Overcast
2:30 AM 32.0 °F 23.0 °F 12.2 °F 44% 30.63 in 10.0 mi North 11.5 mph - N/A   Overcast
2:50 AM 32.0 °F 22.5 °F 12.2 °F 44% 30.63 in 10.0 mi North 12.7 mph - N/A   Overcast
3:10 AM 32.0 °F 22.5 °F 12.2 °F 44% 30.63 in 10.0 mi North 12.7 mph - N/A   Overcast
3:30 AM 32.0 °F 24.2 °F 12.2 °F 44% 30.62 in 10.0 mi North 9.2 mph - N/A   Overcast
3:50 AM 32.0 °F 22.5 °F 12.2 °F 44% 30.62 in 10.0 mi North 12.7 mph - N/A   Overcast
4:10 AM 32.0 °F 23.6 °F 12.2 °F 44% 30.63 in 10.0 mi North 10.4 mph - N/A   Overcast
4:30 AM 32.0 °F 23.6 °F 12.2 °F 44% 30.63 in 10.0 mi North 10.4 mph - N/A   Overcast
4:50 AM 32.0 °F 22.5 °F 10.4 °F 41% 30.64 in 10.0 mi North 12.7 mph - N/A   Overcast
5:10 AM 32.0 °F 22.5 °F 10.4 °F 41% 30.65 in 10.0 mi North 12.7 mph - N/A   Overcast
5:30 AM 32.0 °F 23.0 °F 10.4 °F 41% 30.65 in 10.0 mi North 11.5 mph - N/A   Overcast
5:50 AM 32.0 °F 23.0 °F 8.6 °F 38% 30.66 in 10.0 mi North 11.5 mph - N/A   Overcast
6:10 AM 32.0 °F 24.2 °F 8.6 °F 38% 30.66 in 10.0 mi North 9.2 mph - N/A   Overcast
6:30 AM 32.0 °F 23.6 °F 6.8 °F 35% 30.66 in 10.0 mi North 10.4 mph - N/A   Overcast
6:50 AM 32.0 °F 24.2 °F 8.6 °F 38% 30.67 in 10.0 mi North 9.2 mph - N/A   Overcast
7:10 AM 32.0 °F 23.6 °F 8.6 °F 38% 30.67 in 10.0 mi North 10.4 mph - N/A   Overcast
7:30 AM 32.0 °F 23.0 °F 10.4 °F 41% 30.68 in 10.0 mi North 11.5 mph - N/A   Overcast
7:50 AM 32.0 °F 23.6 °F 10.4 °F 41% 30.68 in 10.0 mi North 10.4 mph - N/A   Overcast
8:10 AM 32.0 °F 23.0 °F 10.4 °F 41% 30.68 in 10.0 mi North 11.5 mph - N/A   Overcast
8:30 AM 32.0 °F 23.0 °F 10.4 °F 41% 30.69 in 10.0 mi North 11.5 mph 17.3 mph N/A   Overcast
8:50 AM 32.0 °F 22.1 °F 10.4 °F 41% 30.70 in 10.0 mi North 13.8 mph - N/A   Overcast
9:10 AM 32.0 °F 23.0 °F 10.4 °F 41% 30.70 in 10.0 mi North 11.5 mph - N/A   Overcast
9:30 AM 33.8 °F 24.3 °F 14.0 °F 44% 30.71 in 10.0 mi North 13.8 mph - N/A   Overcast
9:50 AM 33.8 °F 23.9 °F 14.0 °F 44% 30.71 in 10.0 mi NNE 15.0 mph - N/A   Overcast
10:10 AM 33.8 °F 24.3 °F 15.8 °F 48% 30.72 in 10.0 mi NNE 13.8 mph - N/A   Overcast
10:30 AM 33.8 °F 23.5 °F 15.8 °F 48% 30.72 in 10.0 mi NNE 16.1 mph 23.0 mph N/A   Overcast
10:50 AM 33.8 °F 22.8 °F 17.6 °F 52% 30.72 in 10.0 mi NNE 18.4 mph - N/A   Overcast
11:10 AM 35.6 °F 25.9 °F 17.6 °F 48% 30.72 in 10.0 mi NNE 16.1 mph - N/A   Overcast
11:30 AM 35.6 °F 25.9 °F 15.8 °F 44% 30.72 in 10.0 mi NE 16.1 mph 21.9 mph N/A   Overcast
11:50 AM 35.6 °F 25.5 °F 15.8 °F 44% 30.71 in 10.0 mi NNE 17.3 mph 23.0 mph N/A   Overcast
12:10 PM 35.6 °F 26.2 °F 15.8 °F 44% 30.70 in 10.0 mi NNE 15.0 mph - N/A   Overcast
12:30 PM 37.4 °F 27.2 °F 15.8 °F 41% 30.70 in 10.0 mi NNE 19.6 mph - N/A   Overcast
12:50 PM 35.6 °F 25.5 °F 15.8 °F 44% 30.69 in 10.0 mi NNE 17.3 mph 23.0 mph N/A   Overcast
1:10 PM 37.4 °F 28.5 °F 17.6 °F 45% 30.69 in 10.0 mi NE 15.0 mph - N/A   Overcast
1:30 PM 35.6 °F 24.8 °F 17.6 °F 48% 30.68 in 10.0 mi NNE 19.6 mph - N/A   Overcast
1:50 PM 35.6 °F 24.8 °F 17.6 °F 48% 30.68 in 10.0 mi NNE 19.6 mph 24.2 mph N/A   Mostly Cloudy
2:10 PM 35.6 °F 26.2 °F 19.4 °F 52% 30.68 in 10.0 mi NNE 15.0 mph 21.9 mph N/A   Partly Cloudy
2:30 PM 35.6 °F 25.5 °F 17.6 °F 48% 30.68 in 10.0 mi NNE 17.3 mph 20.7 mph N/A   Clear
2:50 PM 35.6 °F 26.2 °F 19.4 °F 52% 30.67 in 10.0 mi NE 15.0 mph - N/A   Clear
3:10 PM 35.6 °F 27.1 °F 19.4 °F 52% 30.68 in 10.0 mi NE 12.7 mph - N/A   Clear
3:30 PM 35.6 °F 25.9 °F 19.4 °F 52% 30.69 in 10.0 mi NE 16.1 mph - N/A   Mostly Cloudy
3:50 PM 35.6 °F 28.0 °F 19.4 °F 52% 30.68 in 10.0 mi NE 10.4 mph - N/A   Mostly Cloudy
4:10 PM 35.6 °F 26.2 °F 19.4 °F 52% 30.69 in 10.0 mi NE 15.0 mph 18.4 mph N/A   Partly Cloudy
4:30 PM 35.6 °F 25.9 °F 17.6 °F 48% 30.68 in 10.0 mi NE 16.1 mph - N/A   Clear
4:50 PM 35.6 °F 26.6 °F 17.6 °F 48% 30.69 in 10.0 mi NE 13.8 mph - N/A   Partly Cloudy
5:10 PM 33.8 °F 23.5 °F 17.6 °F 52% 30.67 in 10.0 mi NE 16.1 mph 21.9 mph N/A   Clear
5:30 PM 32.0 °F 21.6 °F 17.6 °F 55% 30.69 in 10.0 mi NNE 15.0 mph - N/A   Clear
5:50 PM 32.0 °F 22.1 °F 17.6 °F 55% 30.69 in 10.0 mi NE 13.8 mph - N/A   Scattered Clouds
6:10 PM 32.0 °F 22.1 °F 17.6 °F 55% 30.69 in 10.0 mi NE 13.8 mph - N/A   Partly Cloudy
6:30 PM 32.0 °F 24.2 °F 17.6 °F 55% 30.71 in 10.0 mi NE 9.2 mph - N/A   Clear
6:50 PM 32.0 °F 24.2 °F 19.4 °F 60% 30.70 in 10.0 mi NE 9.2 mph - N/A   Clear
7:10 PM 32.0 °F 24.8 °F 19.4 °F 60% 30.71 in 10.0 mi NNE 8.1 mph - N/A   Clear
7:30 PM 32.0 °F 23.0 °F 19.4 °F 60% 30.70 in 10.0 mi NE 11.5 mph - N/A   Clear
7:50 PM 32.0 °F 23.0 °F 19.4 °F 60% 30.69 in 10.0 mi NE 11.5 mph 17.3 mph N/A   Clear
8:10 PM 30.2 °F 21.3 °F 17.6 °F 60% 30.69 in 10.0 mi NE 10.4 mph - N/A   Clear
8:30 PM 30.2 °F 19.8 °F 17.6 °F 60% 30.68 in 10.0 mi NE 13.8 mph - N/A   Clear
8:50 PM 28.4 °F 17.0 °F 15.8 °F 59% 30.68 in 10.0 mi NE 15.0 mph - N/A   Clear
9:10 PM 28.4 °F 18.0 °F 15.8 °F 59% 30.67 in 10.0 mi NE 12.7 mph - N/A   Clear
9:30 PM 28.4 °F 16.6 °F 15.8 °F 59% 30.67 in 10.0 mi NE 16.1 mph - N/A   Clear
9:50 PM 28.4 °F 16.6 °F 15.8 °F 59% 30.68 in 10.0 mi NE 16.1 mph - N/A   Clear
10:10 PM 28.4 °F 18.0 °F 14.0 °F 55% 30.68 in 10.0 mi NE 12.7 mph - N/A   Clear
10:30 PM 26.6 °F 16.2 °F 14.0 °F 59% 30.68 in 10.0 mi NE 11.5 mph - N/A   Clear
10:50 PM 26.6 °F 18.2 °F 15.8 °F 64% 30.69 in 10.0 mi NE 8.1 mph - N/A   Clear
11:10 PM 26.6 °F 16.8 °F 15.8 °F 64% 30.68 in 10.0 mi NE 10.4 mph - N/A   Clear
11:30 PM 26.6 °F 16.8 °F 15.8 °F 64% 30.68 in 10.0 mi NE 10.4 mph - N/A   Clear
11:50 PM 26.6 °F 18.2 °F 15.8 °F 64% 30.69 in 10.0 mi NNE 8.1 mph - N/A   Clear